Home   Weather   Fujisawa Shi   Past weeks
Flag for Japan

Past Weather in Fujisawa Shi, Japan — June 2020

Now
73 °F

Mild.


Feels Like: 73 °F
Forecast: 83 / 72 °F
Wind: 2 mph from North

Location: Tokyo

Current Time: Jul 3, 2020 at 1:49:21 am

Latest Report: Jul 3, 2020 at 1:00 am


Visibility: N/A

Pressure: 29.82 "Hg

Humidity: 83%

Dew Point: 68 °F

Location of Fujisawa ShiLocation

June 2020 Weather in Fujisawa Shi — Graph

°F

High & Low Weather Summary for June 2020

 TemperatureHumidityPressure
High89 °F (Jun 15, 12:00 pm)100% (Jun 1, 3:00 pm)30.10 "Hg (Jun 1, 3:00 pm)
Low63 °F (Jun 20, 4:00 am)39% (Jun 10, 3:00 pm)29.47 "Hg (Jun 14, 11:00 pm)
Average74 °F82%29.75 "Hg
* Reported Jun 1 12:00 am — Jun 30 11:00 pm, Fujisawa Shi. Weather by CustomWeather, © 2020

Note: Actual official high and low records may vary slightly from our data, if they occured in-between our weather recording intervals... More about our weather records

Fujisawa Shi Weather History for June 1, 2020

Scroll right to see more
 ConditionsComfort  
Time TempWeatherWind HumidityBarometerVisibility
12:00 am
Mon, Jun 1
69 °FMild.8 mph73%30.00 "HgN/A
1:00 am68 °FMild.8 mph71%30.00 "HgN/A
2:00 am67 °FMild.7 mph76%29.98 "HgN/A
3:00 am67 °FOvercast.1 mph79%29.97 "Hg12 mi
4:00 am65 °FMild.5 mph90%29.98 "HgN/A
5:00 am66 °FMild.6 mph89%29.98 "HgN/A
6:00 am66 °FOvercast.5 mph89%29.97 "Hg9 mi
7:00 am66 °FMild.1 mph96%29.98 "HgN/A
8:00 am66 °FMild.3 mph93%29.97 "HgN/A
9:00 am66 °FLight rain. Overcast.3 mph94%29.96 "Hg5 mi
10:00 am67 °FMild.3 mph97%29.94 "HgN/A
11:00 am68 °FMild.2 mph92%29.92 "HgN/A
12:00 pm70 °FOvercast.2 mph93%29.90 "Hg9 mi
1:00 pm69 °FMild.5 mph95%29.88 "HgN/A
2:00 pm68 °FMild.8 mph96%29.86 "HgN/A
3:00 pm68 °FSprinkles. Overcast.3 mph100%29.85 "Hg3 mi
4:00 pm68 °FMild.2 mph100%29.84 "HgN/A
6:00 pm68 °FSprinkles. Overcast.7 mph93%29.83 "Hg5 mi
7:00 pm67 °FMild.3 mph99%29.83 "HgN/A
8:00 pm67 °FMild.6 mph98%29.83 "HgN/A
9:00 pm67 °FOvercast.3 mph100%29.83 "Hg6 mi
10:00 pm67 °FMild.6 mph98%29.82 "HgN/A
11:00 pm67 °FMild.2 mph100%29.81 "HgN/A
Weather by CustomWeather, © 2020

See weather overview